timestamp,surface_pressure_avg,surface_temp_avg,battery_voltage,lat,long
2018-06-13 00:00:00+00:00,359.8729,4.8,13.37,47.84626,-54.09684
2018-06-13 00:10:00+00:00,355.2698,4.8,13.29,47.84626,-54.09684
2018-06-13 00:20:00+00:00,352.2363,4.8,13.29,47.84626,-54.09684
2018-06-13 00:30:00+00:00,344.7396,4.83,13.21,47.84626,-54.09684
2018-06-13 00:40:00+00:00,335.4747,4.83,13.21,47.84626,-54.09684
2018-06-13 00:50:00+00:00,328.4363,4.8,13.21,47.84626,-54.09684
2018-06-13 01:00:00+00:00,318.528,4.8,13.13,47.84626,-54.09684
2018-06-13 01:10:00+00:00,304.4097,4.81,13.05,47.84626,-54.09684
2018-06-13 01:20:00+00:00,294.413,4.87,13.05,47.84626,-54.09684
2018-06-13 01:30:00+00:00,289.8364,4.89,13.05,47.84626,-54.09684
2018-06-13 01:40:00+00:00,280.0681,4.9,13.13,47.84626,-54.09684
2018-06-13 01:50:00+00:00,269.1681,4.9,13.13,47.84626,-54.09684
2018-06-13 02:00:00+00:00,260.8481,4.97,13.05,47.84626,-54.09684
2018-06-13 02:10:00+00:00,251.6115,5.09,12.97,47.84626,-54.09684
2018-06-13 02:20:00+00:00,238.6131,5.36,13.05,47.84626,-54.09684
2018-06-13 02:30:00+00:00,230.6331,5.57,13.05,47.84626,-54.09684
2018-06-13 02:40:00+00:00,222.6431,5.67,13.05,47.84626,-54.09684
2018-06-13 02:50:00+00:00,211.9715,5.75,13.05,47.84626,-54.09684
2018-06-13 03:00:00+00:00,204.7598,5.8,12.97,47.84626,-54.09684
2018-06-13 03:10:00+00:00,199.6881,5.78,12.97,47.84626,-54.09684
2018-06-13 03:20:00+00:00,195.1181,5.7,12.97,47.84626,-54.09684
2018-06-13 03:30:00+00:00,192.7348,5.7,12.97,47.84626,-54.09684
2018-06-13 03:40:00+00:00,187.4098,5.7,13.05,47.84626,-54.09684
2018-06-13 03:50:00+00:00,179.5231,5.69,13.05,47.84626,-54.09684
2018-06-13 04:00:00+00:00,176.1815,5.67,12.97,47.84626,-54.09684
2018-06-13 04:10:00+00:00,174.2315,5.6,12.89,47.84626,-54.09684
2018-06-13 04:20:00+00:00,172.2381,5.6,12.97,47.84626,-54.09684
2018-06-13 04:30:00+00:00,172.4315,5.6,12.97,47.84626,-54.09684
2018-06-13 04:40:00+00:00,172.0331,5.6,12.97,47.84626,-54.09684
2018-06-13 04:50:00+00:00,169.6381,5.6,12.97,47.84626,-54.09684
2018-06-13 05:00:00+00:00,170.3515,5.6,12.97,47.84626,-54.09684
2018-06-13 05:10:00+00:00,173.8348,5.59,12.89,47.84626,-54.09684
2018-06-13 05:20:00+00:00,171.2249,5.57,12.97,47.84626,-54.09684
2018-06-13 05:30:00+00:00,169.4581,5.55,12.97,47.84626,-54.09684
2018-06-13 05:40:00+00:00,175.8415,5.54,12.97,47.84626,-54.09684
2018-06-13 05:50:00+00:00,182.0631,5.5,12.97,47.84626,-54.09684
2018-06-13 06:00:00+00:00,184.4048,5.5,12.89,47.84626,-54.09684
2018-06-13 06:10:00+00:00,189.5398,5.5,12.81,47.84626,-54.09684
2018-06-13 06:20:00+00:00,198.1198,5.5,12.89,47.84626,-54.09684
2018-06-13 06:30:00+00:00,207.1215,5.5,12.89,47.84626,-54.09684
2018-06-13 06:40:00+00:00,211.9281,5.5,12.97,47.84626,-54.09684
2018-06-13 06:50:00+00:00,212.0181,5.51,12.97,47.84626,-54.09684
2018-06-13 07:00:00+00:00,216.8814,5.53,12.89,47.84626,-54.09684
2018-06-13 07:10:00+00:00,223.3031,5.52,12.81,47.84626,-54.09684
2018-06-13 07:20:00+00:00,229.2164,5.5,12.89,47.84626,-54.09684
2018-06-13 07:30:00+00:00,233.5182,5.5,12.89,47.84626,-54.09684
2018-06-13 07:40:00+00:00,240.5064,5.5,12.89,47.84626,-54.09684
2018-06-13 07:50:00+00:00,252.2015,5.5,12.97,47.84626,-54.09684
2018-06-13 08:00:00+00:00,258.0614,5.5,12.89,47.84626,-54.09684
2018-06-13 08:10:00+00:00,259.138,5.5,12.81,47.84626,-54.09684
2018-06-13 08:20:00+00:00,263.5098,5.5,12.89,47.84626,-54.09684
2018-06-13 08:30:00+00:00,281.1981,5.5,12.89,47.84626,-54.09684
2018-06-13 08:40:00+00:00,290.8597,5.5,12.97,47.84626,-54.09684
2018-06-13 08:50:00+00:00,293.7513,5.5,12.97,47.84626,-54.09684
2018-06-13 09:00:00+00:00,302.7947,5.49,12.89,47.84626,-54.09684
2018-06-13 09:10:00+00:00,316.9481,5.5,12.81,47.84626,-54.09684
2018-06-13 09:20:00+00:00,321.7762,5.5,12.89,47.84626,-54.09684
2018-06-13 09:30:00+00:00,325.698,5.48,12.97,47.84626,-54.09684
2018-06-13 09:40:00+00:00,340.213,5.48,12.97,47.84626,-54.09684
2018-06-13 09:50:00+00:00,351.4596,5.47,12.97,47.84626,-54.09684
2018-06-13 10:00:00+00:00,346.2745,5.45,12.97,47.84626,-54.09684
2018-06-13 10:10:00+00:00,349.2163,5.46,12.89,47.84626,-54.09684
2018-06-13 10:20:00+00:00,357.4729,5.45,12.97,47.84626,-54.09684
2018-06-13 10:30:00+00:00,358.5229,5.46,12.97,47.84626,-54.09684
2018-06-13 10:40:00+00:00,357.728,5.47,12.97,47.84626,-54.09684
2018-06-13 10:50:00+00:00,362.5813,5.47,13.05,47.84626,-54.09684
2018-06-13 11:00:00+00:00,361.9663,5.47,12.97,47.84626,-54.09684
2018-06-13 11:10:00+00:00,354.418,5.48,12.89,47.84626,-54.09684
2018-06-13 11:20:00+00:00,357.9012,5.48,13.05,47.84626,-54.09684
2018-06-13 11:30:00+00:00,365.7579,5.47,13.05,47.84626,-54.09684
2018-06-13 11:40:00+00:00,357.6546,5.48,13.13,47.84626,-54.09684
2018-06-13 11:50:00+00:00,350.7845,5.49,13.13,47.84626,-54.09684
2018-06-13 12:00:00+00:00,351.3629,5.49,13.05,47.84626,-54.09684
2018-06-13 12:10:00+00:00,351.4246,5.49,12.97,47.84626,-54.09684
2018-06-13 12:20:00+00:00,339.0297,5.5,13.05,47.84626,-54.09684
2018-06-13 12:30:00+00:00,335.598,5.5,13.05,47.84626,-54.09684
2018-06-13 12:40:00+00:00,335.758,5.5,13.05,47.84626,-54.09684
2018-06-13 12:50:00+00:00,325.6379,5.5,13.05,47.84626,-54.09684
2018-06-13 13:00:00+00:00,315.2413,5.5,13.05,47.84626,-54.09684
2018-06-13 13:10:00+00:00,314.1797,5.5,12.97,47.84626,-54.09684
2018-06-13 13:20:00+00:00,304.9446,5.5,12.97,47.84626,-54.09684
2018-06-13 13:30:00+00:00,288.8097,5.5,12.97,47.84626,-54.09684
2018-06-13 13:40:00+00:00,284.353,5.5,13.05,47.84626,-54.09684
2018-06-13 13:50:00+00:00,281.9465,5.5,13.05,47.84626,-54.09684
2018-06-13 14:00:00+00:00,266.3048,5.5,13.05,47.84626,-54.09684
2018-06-13 14:10:00+00:00,246.9314,5.51,12.97,47.84626,-54.09684
2018-06-13 14:20:00+00:00,244.9281,5.5,13.05,47.84626,-54.09684
2018-06-13 14:30:00+00:00,237.2031,5.52,13.05,47.84626,-54.09684
2018-06-13 14:40:00+00:00,223.8981,5.56,13.05,47.84626,-54.09684
2018-06-13 14:50:00+00:00,217.1548,5.56,13.13,47.84626,-54.09684
2018-06-13 15:00:00+00:00,215.1064,5.56,13.13,47.84626,-54.09684
2018-06-13 15:10:00+00:00,203.1065,5.58,13.05,47.84626,-54.09684
2018-06-13 15:20:00+00:00,195.9082,5.59,13.13,47.84626,-54.09684
2018-06-13 15:30:00+00:00,194.6498,5.59,13.21,47.84626,-54.09684
2018-06-13 15:40:00+00:00,188.0714,5.6,13.29,47.84626,-54.09684
2018-06-13 15:50:00+00:00,181.8665,5.6,13.37,47.84626,-54.09684
2018-06-13 16:00:00+00:00,180.1148,5.6,13.37,47.84626,-54.09684
2018-06-13 16:10:00+00:00,176.9449,5.6,13.29,47.84626,-54.09684
2018-06-13 16:20:00+00:00,175.0099,5.63,13.37,47.84626,-54.09684
2018-06-13 16:30:00+00:00,178.7548,5.66,13.44,47.84626,-54.09684
2018-06-13 16:40:00+00:00,174.7448,5.7,13.6,47.84626,-54.09684
2018-06-13 16:50:00+00:00,169.5648,5.7,13.68,47.84626,-54.09684
2018-06-13 17:00:00+00:00,174.0331,5.7,13.68,47.84626,-54.09684
2018-06-13 17:10:00+00:00,179.4898,5.7,13.68,47.84626,-54.09684
2018-06-13 17:20:00+00:00,179.8231,5.7,14.48,47.84626,-54.09684
2018-06-13 17:30:00+00:00,180.0381,5.74,14.32,47.84626,-54.09684
2018-06-13 17:40:00+00:00,185.3148,5.73,14.56,47.84626,-54.09684
2018-06-13 17:50:00+00:00,189.9615,5.75,14.48,47.84626,-54.09684
2018-06-13 18:00:00+00:00,193.8965,5.79,14.32,47.84626,-54.09684
2018-06-13 18:10:00+00:00,194.0797,5.8,14.16,47.84626,-54.09684
2018-06-13 18:20:00+00:00,197.8481,5.8,14.24,47.84626,-54.09684
2018-06-13 18:30:00+00:00,203.9231,5.8,14.24,47.84626,-54.09684
2018-06-13 18:40:00+00:00,210.1065,5.8,14.24,47.84626,-54.09684
2018-06-13 18:50:00+00:00,216.8814,5.82,14.24,47.84626,-54.09684
2018-06-13 19:00:00+00:00,219.6181,5.82,14.16,47.84626,-54.09684
2018-06-13 19:10:00+00:00,221.7047,5.81,14.0,47.84626,-54.09684
2018-06-13 19:20:00+00:00,229.4398,5.8,14.08,47.84626,-54.09684
2018-06-13 19:30:00+00:00,235.8381,5.8,14.08,47.84626,-54.09684
2018-06-13 19:40:00+00:00,238.5098,5.8,14.16,47.84626,-54.09684
2018-06-13 19:50:00+00:00,244.3464,5.83,14.16,47.84626,-54.09684
2018-06-13 20:00:00+00:00,251.7997,5.83,14.08,47.84626,-54.09684
2018-06-13 20:10:00+00:00,255.4747,5.83,14.0,47.84626,-54.09684
2018-06-13 20:20:00+00:00,261.1631,5.84,14.0,47.84626,-54.09684
2018-06-13 20:30:00+00:00,269.9381,5.82,14.08,47.84626,-54.09684
2018-06-13 20:40:00+00:00,280.2414,5.83,14.16,47.84626,-54.09684
2018-06-13 20:50:00+00:00,288.0698,5.8,14.24,47.84626,-54.09684
2018-06-13 21:00:00+00:00,296.1581,5.8,14.16,47.84626,-54.09684
2018-06-13 21:10:00+00:00,304.403,5.8,14.0,47.84626,-54.09684
2018-06-13 21:20:00+00:00,315.7596,5.8,14.0,47.84626,-54.09684
2018-06-13 21:30:00+00:00,322.1763,5.8,14.0,47.84626,-54.09684
2018-06-13 21:40:00+00:00,329.2531,5.85,14.0,47.84626,-54.09684
2018-06-13 21:50:00+00:00,338.7813,5.88,14.0,47.84626,-54.09684
2018-06-13 22:00:00+00:00,350.0129,5.89,13.84,47.84626,-54.09684
2018-06-13 22:10:00+00:00,359.7463,5.9,13.68,47.84626,-54.09684
2018-06-13 22:20:00+00:00,365.8879,5.9,13.68,47.84626,-54.09684
2018-06-13 22:30:00+00:00,368.6929,5.9,13.68,47.84626,-54.09684
2018-06-13 22:40:00+00:00,374.713,5.9,13.68,47.84626,-54.09684
2018-06-13 22:50:00+00:00,378.463,5.9,13.6,47.84626,-54.09684
2018-06-13 23:00:00+00:00,379.8563,5.9,13.53,47.84626,-54.09684
2018-06-13 23:10:00+00:00,379.3979,5.9,13.37,47.84626,-54.09684
2018-06-13 23:20:00+00:00,381.9212,5.9,13.37,47.84626,-54.09684
2018-06-13 23:30:00+00:00,383.088,5.9,13.37,47.84626,-54.09684
2018-06-13 23:40:00+00:00,382.6929,5.91,13.29,47.84626,-54.09684
2018-06-13 23:50:00+00:00,380.3445,5.95,13.29,47.84626,-54.09684
